Terminal Aerodrome Forecast
Issued by NWS Pocatello, ID

Home | Current Version | Previous Version | Text Only | Print | Product List | Glossary On
Versions: 1 2 3 4 5 6 7 8 9 10 11 12 13 14 15 16 17 18 19 20 21 22 23 24 25 26
548
FTUS45 KPIH 060904 AAB
TAFPIH
TAF AMD
KPIH 060904Z 0609/0706 VRB06KT 6SM BR SCT002
     FM061000 19009KT P6SM FEW040 BKN100
     FM061400 20013G22KT P6SM SCT040 BKN100
     FM061900 22017G27KT P6SM SCT020 BKN060=

USA.gov is the U.S. government's official web portal to all federal, state and local government web resources and services.